Weather History for Asyut, Egypt

Change the Weather History Date:

Monday, December 30, 2013

  Actual Average Record
Temperature  
Mean Temperature 56 °F -  
Max Temperature 67 °F 67 °F - ()
Min Temperature 44 °F 40 °F - ()
Degree Days  
Heating Degree Days 10    
Growing Degree Days 6 (Base 50)    
Moisture  
Dew Point 40 °F    
Average Humidity 55    
Maximum Humidity 67    
Minimum Humidity 45    
Precipitation  
Precipitation 0.00 in 0.00 in - ()
Sea Level Pressure  
Sea Level Pressure 30.07 in    
Wind  
Wind Speed 6 mph ()    
Max Wind Speed 12 mph    
Max Gust Speed -    
Visibility 6.2 miles    
Events      
T = Trace of Precipitation, MM = Missing Value Source: Averaged Metar Reports

Daily Weather History Graph

Daily Weather History Graph

Search for Another Location

Airport:

Trip Planner

Search our weather history database for the weather conditions in past years. The results will help you decide how hot, cold, wet, or windy it might be!

Date:

Astronomy

Dec. 30, 2013 Rise Set
Actual Time 6:44 AM EET 5:12 PM EET
Civil Twilight 6:19 AM EET 5:37 PM EET
Nautical Twilight 5:50 AM EET 6:06 PM EET
Astronomical Twilight 5:21 AM EET 6:35 PM EET
Moon 4:17 AM EET (12/30) 3:21 PM EET (12/30)
Length of Visible Light 11h 18m
Length of Day
10h 27m
Waning Crescent, 6% of the Moon is Illuminated
Dec 30
Waning Crescent
Jan 1
New
Jan 8
First Quarter
Jan 16
Full
Jan 24
Last Quarter

Hourly Weather History & Observations

Time (EET) Temp. Windchill Dew Point Humidity Pressure Visibility Wind Dir Wind Speed Gust Speed Precip Events Conditions
12:00 AM 48.2 °F - 33.8 °F 58% 30.06 in - South 6.9 mph - N/A   Clear
1:00 AM 48.2 °F - 32.0 °F 54% 30.06 in - SSW 9.2 mph - N/A   Clear
2:00 AM 50.0 °F - 33.8 °F 54% 30.06 in - SW 6.9 mph - N/A   Clear
4:00 AM 48.2 °F - 33.8 °F 58% 30.06 in - SSW 8.1 mph - N/A   Clear
5:00 AM 46.4 °F 44.3 °F 33.8 °F 62% 30.06 in - SSW 4.6 mph - N/A   Clear
6:00 AM 44.6 °F 40.7 °F 33.8 °F 66% 30.06 in - South 6.9 mph - N/A   Clear
7:00 AM 44.6 °F - 33.8 °F 66% 30.09 in - South 2.3 mph - N/A   Clear
8:00 AM 50.0 °F - 39.2 °F 66% 30.09 in 6.2 mi SW 8.1 mph - N/A   Partly Cloudy
9:00 AM 53.6 °F - 37.4 °F 54% 30.09 in 6.2 mi WSW 11.5 mph - N/A   Partly Cloudy
10:00 AM 59.0 °F - 41.0 °F 51% 30.12 in - West 8.1 mph - N/A   Clear
11:00 AM 62.6 °F - 42.8 °F 48% 30.12 in - WSW 6.9 mph - N/A   Clear
12:00 PM 64.4 °F - 42.8 °F 45% 30.09 in - WNW 8.1 mph - N/A   Clear
1:00 PM 66.2 °F - 44.6 °F 46% 30.06 in 6.2 mi West 10.4 mph - N/A   Partly Cloudy
2:00 PM 66.2 °F - 46.4 °F 49% 30.04 in 6.2 mi WNW 10.4 mph - N/A   Scattered Clouds
3:00 PM 66.2 °F - 46.4 °F 49% 30.04 in 6.2 mi West 10.4 mph - N/A   Scattered Clouds
4:00 PM 64.4 °F - 46.4 °F 52% 30.04 in 6.2 mi West 10.4 mph - N/A   Partly Cloudy
5:00 PM 64.4 °F - 44.6 °F 49% 30.04 in - WNW 9.2 mph - N/A   Clear
6:00 PM 64.4 °F - 44.6 °F 49% 30.04 in - WNW 9.2 mph - N/A   Clear
7:00 PM 60.8 °F - 44.6 °F 55% 30.06 in - WSW 4.6 mph - N/A   Clear
8:00 PM 56 °F - 42 °F 48% 30.09 in 6 mi WSW 4.6 mph - -  
8:00 PM 57.2 °F - 42.8 °F 59% 30.09 in - WSW 4.6 mph - N/A   Clear
9:00 PM 55.4 °F - 42.8 °F 63% 30.09 in - WSW 2.3 mph - N/A   Clear
10:00 PM 51.8 °F - 41.0 °F 67% 30.09 in - West 3.5 mph - N/A   Clear